When you browse on this site, cookies collect data to enhance your experience and personalize the content and advertising you see.
Visit our Privacy Policy to learn more. By continuing to use the site, you agree to this use of cookies and data.
  • In Austria
  • List of Countries
  • For 7 days
  • Water Temperature
  • Satellite Maps
  • Weather Map
  • News
  • Weather Widgets
  • user-avatar
    Login

    Hourly Weather Khulna

    Today, 22 April, Monday

    Time Temperature Precipitation Wind Pressure Humidity
    00:00 +30°C° 0 mm 4 mps 754 mmHg 52%
    01:00 +30°C° 0.6 mm 3 mps 754 mmHg 55%
    02:00 +29°C° 0.6 mm 2 mps 753 mmHg 57%
    03:00 +28°C° 0.6 mm 1 mps 753 mmHg 59%
    04:00 +28°C° 0 mm 1 mps 753 mmHg 60%
    05:00 +28°C° 0 mm 1 mps 753 mmHg 61%
    06:00 +27°C° 0 mm 1 mps 754 mmHg 62%
    07:00 +30°C° 0 mm 1 mps 754 mmHg 53%
    08:00 +32°C° 0 mm 1 mps 755 mmHg 45%
    09:00 +35°C° 0 mm 1 mps 755 mmHg 37%
    10:00 +36°C° 0 mm 1 mps 755 mmHg 33%
    11:00 +39°C° 0 mm 1 mps 755 mmHg 29%
    12:00 +40°C° 0 mm 1 mps 754 mmHg 26%
    13:00 +41°C° 0 mm 1 mps 754 mmHg 25%
    14:00 +41°C° 0 mm 2 mps 753 mmHg 24%
    15:00 +41°C° 0 mm 2 mps 752 mmHg 23%
    16:00 +40°C° 0 mm 2 mps 752 mmHg 25%
    17:00 +39°C° 0 mm 2 mps 752 mmHg 27%
    18:00 +38°C° 0 mm 2 mps 752 mmHg 29%
    19:00 +37°C° 0 mm 3 mps 752 mmHg 34%
    20:00 +35°C° 0 mm 4 mps 753 mmHg 40%
    21:00 +34°C° 0 mm 5 mps 753 mmHg 45%
    22:00 +34°C° 0 mm 5 mps 753 mmHg 49%
    23:00 +33°C° 0 mm 4 mps 754 mmHg 54%

    Tomorrow, 23 April, Tuesday

    Time Temperature Precipitation Wind Pressure Humidity
    00:00 +33°C° 0 mm 3 mps 754 mmHg 58%
    01:00 +31°C° 0 mm 3 mps 754 mmHg 61%
    02:00 +31°C° 0 mm 2 mps 753 mmHg 65%
    03:00 +30°C° 0 mm 2 mps 753 mmHg 68%
    04:00 +30°C° 0 mm 2 mps 753 mmHg 71%
    05:00 +30°C° 0 mm 2 mps 754 mmHg 74%
    06:00 +29°C° 0 mm 2 mps 754 mmHg 77%
    07:00 +31°C° 0 mm 2 mps 755 mmHg 67%
    08:00 +34°C° 0 mm 2 mps 755 mmHg 58%
    09:00 +35°C° 0 mm 1 mps 756 mmHg 48%
    10:00 +37°C° 0 mm 1 mps 756 mmHg 41%
    11:00 +40°C° 0 mm 1 mps 755 mmHg 34%
    12:00 +42°C° 0 mm 1 mps 755 mmHg 27%
    13:00 +42°C° 0 mm 1 mps 754 mmHg 25%
    14:00 +42°C° 0 mm 1 mps 754 mmHg 23%
    15:00 +42°C° 0 mm 1 mps 753 mmHg 21%
    16:00 +39°C° 1 mm 3 mps 753 mmHg 31%
    17:00 +36°C° 1 mm 5 mps 753 mmHg 41%
    18:00 +33°C° 1 mm 7 mps 752 mmHg 51%
    19:00 +33°C° 1.1 mm 6 mps 753 mmHg 50%
    20:00 +33°C° 1.1 mm 6 mps 754 mmHg 50%
    21:00 +33°C° 1.1 mm 5 mps 755 mmHg 49%
    22:00 +33°C° 0.1 mm 5 mps 755 mmHg 48%
    23:00 +33°C° 0.1 mm 4 mps 755 mmHg 47%

    Day after tomorrow, 24 April, Wednesday

    Time Temperature Precipitation Wind Pressure Humidity
    00:00 +33°C° 0.1 mm 3 mps 755 mmHg 46%
    01:00 +31°C° 0 mm 3 mps 755 mmHg 51%
    02:00 +30°C° 0 mm 2 mps 755 mmHg 55%
    03:00 +30°C° 0 mm 1 mps 754 mmHg 60%
    04:00 +30°C° 0 mm 1 mps 755 mmHg 60%
    05:00 +29°C° 0 mm 2 mps 755 mmHg 60%
    06:00 +29°C° 0 mm 2 mps 755 mmHg 60%
    07:00 +31°C° 0 mm 2 mps 756 mmHg 52%
    08:00 +35°C° 0 mm 2 mps 756 mmHg 43%
    09:00 +37°C° 0 mm 2 mps 757 mmHg 35%
    10:00 +39°C° 0 mm 2 mps 757 mmHg 31%
    11:00 +40°C° 0 mm 2 mps 757 mmHg 26%
    12:00 +42°C° 0 mm 2 mps 756 mmHg 22%
    13:00 +42°C° 0 mm 2 mps 755 mmHg 21%
    14:00 +42°C° 0 mm 2 mps 754 mmHg 20%
    15:00 +43°C° 0 mm 2 mps 753 mmHg 19%
    16:00 +43°C° 0 mm 3 mps 753 mmHg 22%
    17:00 +41°C° 0 mm 4 mps 753 mmHg 26%
    18:00 +40°C° 0 mm 5 mps 753 mmHg 30%
    19:00 +39°C° 0 mm 5 mps 753 mmHg 35%
    20:00 +36°C° 0 mm 4 mps 754 mmHg 41%
    21:00 +34°C° 0 mm 4 mps 755 mmHg 46%
    22:00 +34°C° 0 mm 4 mps 755 mmHg 50%
    23:00 +33°C° 0 mm 4 mps 755 mmHg 54%

    25 April, Thursday

    Time Temperature Precipitation Wind Pressure Humidity
    00:00 +33°C° 0 mm 3 mps 755 mmHg 57%
    01:00 +31°C° 0 mm 3 mps 754 mmHg 59%
    02:00 +31°C° 0 mm 2 mps 754 mmHg 61%
    03:00 +30°C° 0 mm 2 mps 754 mmHg 64%
    04:00 +30°C° 0 mm 1 mps 754 mmHg 66%
    05:00 +30°C° 0 mm 1 mps 754 mmHg 68%
    06:00 +27°C° 0 mm 0 mps 755 mmHg 70%
    07:00 +32°C° 0 mm 1 mps 755 mmHg 61%
    08:00 +34°C° 0 mm 1 mps 756 mmHg 51%
    09:00 +37°C° 0 mm 2 mps 757 mmHg 42%
    10:00 +39°C° 0 mm 2 mps 756 mmHg 36%
    11:00 +41°C° 0 mm 2 mps 756 mmHg 30%
    12:00 +43°C° 0 mm 3 mps 756 mmHg 23%
    13:00 +44°C° 0 mm 3 mps 755 mmHg 22%
    14:00 +44°C° 0 mm 3 mps 754 mmHg 21%
    15:00 +44°C° 0 mm 3 mps 753 mmHg 20%
    16:00 +43°C° 0 mm 3 mps 753 mmHg 22%
    17:00 +42°C° 0 mm 4 mps 753 mmHg 25%
    18:00 +41°C° 0 mm 5 mps 752 mmHg 27%
    19:00 +39°C° 0 mm 5 mps 753 mmHg 31%
    20:00 +37°C° 0 mm 5 mps 753 mmHg 36%
    21:00 +35°C° 0 mm 5 mps 754 mmHg 40%
    22:00 +34°C° 0 mm 4 mps 754 mmHg 44%
    23:00 +34°C° 0 mm 4 mps 753 mmHg 48%

    26 April, Friday

    Time Temperature Precipitation Wind Pressure Humidity
    00:00 +33°C° 0 mm 3 mps 753 mmHg 52%
    01:00 +31°C° 0 mm 3 mps 753 mmHg 56%
    02:00 +31°C° 0 mm 3 mps 753 mmHg 59%
    03:00 +30°C° 0 mm 3 mps 752 mmHg 62%
    04:00 +30°C° 0 mm 3 mps 753 mmHg 65%
    05:00 +30°C° 0 mm 2 mps 753 mmHg 68%
    06:00 +30°C° 0 mm 2 mps 753 mmHg 71%
    07:00 +32°C° 0 mm 2 mps 754 mmHg 60%
    08:00 +36°C° 0 mm 3 mps 755 mmHg 49%
    09:00 +38°C° 0 mm 3 mps 755 mmHg 38%
    10:00 +40°C° 0 mm 3 mps 755 mmHg 32%
    11:00 +43°C° 0 mm 3 mps 754 mmHg 27%
    12:00 +45°C° 0 mm 4 mps 754 mmHg 21%
    13:00 +45°C° 0 mm 4 mps 753 mmHg 20%
    14:00 +47°C° 0 mm 4 mps 752 mmHg 19%
    15:00 +47°C° 0 mm 5 mps 751 mmHg 18%
    16:00 +46°C° 0 mm 5 mps 751 mmHg 21%
    17:00 +44°C° 0 mm 6 mps 751 mmHg 24%
    18:00 +41°C° 0 mm 6 mps 751 mmHg 26%
    19:00 +39°C° 0 mm 6 mps 752 mmHg 34%
    20:00 +37°C° 0 mm 5 mps 752 mmHg 42%
    21:00 +35°C° 0 mm 5 mps 753 mmHg 49%
    22:00 +34°C° 0 mm 5 mps 753 mmHg 54%
    23:00 +33°C° 0 mm 4 mps 752 mmHg 59%

    27 April, Saturday

    Time Temperature Precipitation Wind Pressure Humidity
    00:00 +32°C° 0 mm 4 mps 752 mmHg 63%
    01:00 +32°C° 0 mm 4 mps 752 mmHg 66%
    02:00 +32°C° 0 mm 4 mps 752 mmHg 68%
    03:00 +30°C° 0 mm 4 mps 752 mmHg 70%
    04:00 +30°C° 0 mm 4 mps 752 mmHg 72%
    05:00 +30°C° 0 mm 4 mps 753 mmHg 74%
    06:00 +30°C° 0 mm 3 mps 753 mmHg 76%
    07:00 +33°C° 0 mm 4 mps 753 mmHg 65%
    08:00 +36°C° 0 mm 5 mps 754 mmHg 54%
    09:00 +39°C° 0 mm 6 mps 754 mmHg 43%
    10:00 +41°C° 0 mm 6 mps 754 mmHg 37%
    11:00 +44°C° 0 mm 6 mps 753 mmHg 30%
    12:00 +46°C° 0 mm 7 mps 753 mmHg 24%
    13:00 +46°C° 0 mm 7 mps 752 mmHg 24%
    14:00 +46°C° 0 mm 7 mps 751 mmHg 24%
    15:00 +46°C° 0 mm 7 mps 750 mmHg 24%
    16:00 +44°C° 0 mm 7 mps 750 mmHg 28%
    17:00 +43°C° 0 mm 7 mps 750 mmHg 32%
    18:00 +40°C° 0 mm 7 mps 750 mmHg 36%
    19:00 +38°C° 0 mm 7 mps 751 mmHg 45%
    20:00 +35°C° 0 mm 6 mps 751 mmHg 54%
    21:00 +34°C° 0 mm 6 mps 752 mmHg 63%
    22:00 +33°C° 0 mm 6 mps 752 mmHg 66%
    23:00 +33°C° 0 mm 6 mps 752 mmHg 70%
    Show more